[[{"header":{"parameterUnit":"m.s-1","parameterCategory":1,"la1":30.2991,"la2":30.254,"lo1":-89.0895,"lo2":-89.0444,"dy":0.0017,"dx":0.0017,"nx":28,"ny":28,"refTime":"2023-09-02T09:00:00:Z","depth":0,"parameterNumber":2,"parameterNumberName":"U-component_of_WINDS"},"data":[0,0,0,0,0,0,0,0,0,0,0,0,0,0,0,0,0,0,0,0,0,0,0,0,0,0,0,0,0,0,0,0,0,0,0,0,0,0,0,0,0,0,0,0,0,0,0,0,0,0,0,0,0,0,0,0,0,0,-1.3262,-1.3263,0,-1.3301,-1.3302,-1.3302,-1.3333,-1.3333,-1.3334,-1.3334,-1.3372,-1.3372,-1.3373,0,0,0,0,0,0,0,0,0,0,0,0,0,-1.3212,-1.3212,-1.3262,-1.3263,-1.3263,-1.3301,-1.3302,-1.3302,-1.3333,-1.3333,-1.3334,-1.3334,-1.3372,-1.3372,-1.3373,0,0,0,0,0,0,0,0,0,0,0,0,0,-1.324,-1.3213,-1.3262,-1.3283,-1.3285,-1.3301,-1.3302,-1.3303,-1.3333,-1.3333,-1.3334,-1.3334,-1.3371,-1.3372,-1.3373,-1.3371,0,0,-1.3377,-1.3377,0,0,0,0,0,0,0,0,-1.3239,-1.3242,-1.3279,-1.3282,-1.3284,-1.3313,-1.3298,-1.3325,-1.3333,-1.3315,-1.3334,-1.3334,-1.3352,-1.3354,-1.3361,-1.3373,-1.3374,-1.3377,-1.3377,-1.3378,-1.3378,0,0,0,0,0,0,0,-1.3237,-1.3241,-1.3278,-1.328,-1.3283,-1.329,-1.3294,-1.3303,-1.333,-1.3316,-1.3319,-1.3323,-1.3353,-1.336,-1.3362,-1.3375,-1.3377,-1.3378,-1.3378,-1.3379,-1.3386,-1.3386,0,0,0,0,0,0,-1.3232,-1.3239,-1.3276,-1.3279,-1.3262,-1.329,-1.3296,-1.3303,-1.333,-1.3335,-1.3323,-1.3324,-1.3357,-1.336,-1.3363,-1.3362,-1.3378,-1.3379,-1.338,-1.3387,-1.3386,-1.3386,0,0,0,0,0,0,-1.3231,-1.3235,-1.3275,-1.326,-1.3265,-1.3291,-1.3299,-1.3304,-1.331,-1.3335,-1.334,-1.3324,-1.3358,-1.3362,-1.3369,-1.3363,-1.3379,-1.338,-1.3387,-1.3387,-1.3386,-1.3359,0,0,0,0,0,0,-1.3229,-1.3234,-1.3234,-1.3259,-1.3266,-1.328,-1.3299,-1.3304,-1.3312,-1.3315,-1.3338,-1.3342,-1.3359,-1.3367,-1.337,-1.3365,-1.3381,-1.3388,-1.3387,-1.3386,-1.336,-1.3357,-1.3355,0,0,0,0,0,-1.3227,-1.3224,-1.3234,-1.3238,-1.3266,-1.328,-1.3284,-1.3303,-1.3312,-1.3311,-1.3327,-1.3341,-1.3364,-1.3368,-1.3371,-1.3367,-1.3388,-1.3387,-1.3386,-1.3362,-1.3358,-1.3355,0,0,0,0,0,0,-1.3197,-1.3228,-1.3239,-1.3244,-1.3259,-1.3285,-1.3285,-1.3299,-1.3311,-1.3313,-1.3336,-1.3341,-1.3346,-1.3357,-1.3361,-1.3365,-1.3378,-1.3378,-1.3358,-1.3355,-1.3352,-1.3349,-1.3382,0,0,0,0,0,-1.3191,-1.32,-1.3227,-1.3229,-1.3236,-1.3259,-1.3266,-1.328,-1.3296,-1.3302,-1.3319,-1.3333,-1.3344,-1.335,-1.3361,-1.3362,-1.3367,-1.3361,-1.3358,-1.3356,-1.3355,-1.3356,-1.3354,-1.3383,-1.3383,-1.3383,0,0,-1.3179,-1.3197,-1.3201,-1.3223,-1.3237,-1.3245,-1.3264,-1.3272,-1.3279,-1.3303,-1.3311,-1.3324,-1.3341,-1.3346,-1.3348,-1.3355,-1.3348,-1.3355,-1.3353,-1.3353,-1.3355,-1.3352,-1.335,-1.3382,-1.3382,-1.3382,0,0,-1.316,-1.3175,-1.3179,-1.3192,-1.3212,-1.3228,-1.3228,-1.3252,-1.3262,-1.327,-1.3289,-1.3296,-1.3314,-1.3325,-1.3334,-1.332,-1.3333,-1.3323,-1.3308,-1.3309,-1.3307,-1.3305,-1.3299,-1.3297,-1.3322,-1.3322,-1.3322,0,-1.3142,-1.3156,-1.3179,-1.3186,-1.3195,-1.3218,-1.3222,-1.3233,-1.3255,-1.326,-1.3268,-1.3291,-1.3304,-1.3311,-1.3308,-1.3314,-1.3315,-1.332,-1.3305,-1.3304,-1.3302,-1.3297,-1.3295,-1.3321,-1.3321,-1.3321,-1.3321,0,-1.3133,-1.3142,-1.3142,-1.3164,-1.3173,-1.3178,-1.32,-1.3207,-1.322,-1.3235,-1.3243,-1.326,-1.3275,-1.3278,-1.329,-1.3286,-1.329,-1.3301,-1.3314,-1.3298,-1.3293,-1.3292,-1.3319,-1.3319,-1.332,-1.332,0,0,-1.3096,-1.313,-1.313,-1.314,-1.3164,-1.3171,-1.3177,-1.3192,-1.3197,-1.3212,-1.3217,-1.3231,-1.3242,-1.3251,-1.3265,-1.3266,-1.3254,-1.3277,-1.3278,-1.3272,-1.325,-1.324,-1.3238,-1.3263,-1.3263,-1.3262,-1.3248,0,-1.3081,-1.3093,-1.3114,-1.3119,-1.3128,-1.3151,-1.3156,-1.3171,-1.3184,-1.3193,-1.3208,-1.3218,-1.3231,-1.3237,-1.3239,-1.3255,-1.3249,-1.3256,-1.3267,-1.3267,-1.3261,-1.3236,-1.3226,-1.3211,-1.3246,-1.3246,-1.3246,0,-1.3065,-1.3079,-1.3085,-1.3109,-1.3113,-1.3117,-1.3133,-1.3141,-1.3158,-1.3168,-1.3179,-1.3195,-1.3201,-1.3214,-1.3223,-1.3227,-1.3233,-1.3241,-1.3241,-1.3242,-1.3255,-1.3235,-1.3207,-1.3205,-1.3244,-1.3244,-1.3244,0,-1.3036,-1.3057,-1.3063,-1.3071,-1.3099,-1.3101,-1.3113,-1.313,-1.3138,-1.3152,-1.3157,-1.317,-1.3177,-1.3187,-1.3206,-1.3214,-1.3213,-1.3227,-1.3221,-1.322,-1.3219,-1.3218,-1.319,-1.3224,-1.3224,-1.3224,-1.3224,0,-1.3017,-1.3019,-1.3051,-1.3055,-1.3058,-1.3082,-1.3085,-1.3098,-1.3114,-1.312,-1.3141,-1.3146,-1.3171,-1.3179,-1.3194,-1.3199,-1.3202,-1.321,-1.3214,-1.3208,-1.3207,-1.3211,-1.3212,-1.3223,-1.3223,-1.3223,-1.3223,0,-1.2985,-1.3006,-1.3015,-1.304,-1.3047,-1.3048,-1.307,-1.3075,-1.309,-1.3098,-1.3101,-1.3124,-1.3135,-1.3155,-1.3171,-1.3181,-1.3183,-1.319,-1.3177,-1.3179,-1.3171,-1.3171,-1.3144,-1.3142,-1.3177,-1.3177,-1.3177,0,-1.2971,-1.2974,-1.3,-1.3006,-1.3017,-1.3026,-1.3035,-1.3058,-1.3065,-1.3085,-1.3087,-1.3099,-1.311,-1.3126,-1.3144,-1.3157,-1.3164,-1.3154,-1.3166,-1.3159,-1.3163,-1.3162,-1.3162,-1.315,-1.315,-1.3149,-1.3149,0,-1.2943,-1.2953,-1.2965,-1.298,-1.2989,-1.3002,-1.3016,-1.3019,-1.3045,-1.3053,-1.3064,-1.3073,-1.309,-1.3101,-1.3117,-1.3128,-1.3142,-1.3145,-1.3144,-1.3138,-1.313,-1.3133,-1.3168,-1.3146,-1.3146,-1.3146,-1.3146,-1.3147,-1.2919,-1.2922,-1.2942,-1.2953,-1.2966,-1.2979,-1.2984,-1.3,-1.3011,-1.3027,-1.3039,-1.305,-1.3067,-1.3089,-1.3099,-1.3107,-1.3114,-1.3113,-1.3112,-1.3111,-1.3108,-1.3129,-1.311,-1.311,-1.311,-1.311,-1.311,0,-1.2892,-1.2905,-1.2916,-1.2935,-1.2944,-1.2958,-1.2974,-1.2981,-1.299,-1.3005,-1.3016,-1.3029,-1.304,-1.3059,-1.3073,-1.3075,-1.3082,-1.3078,-1.3077,-1.3079,-1.3102,-1.3101,-1.3072,-1.3072,-1.3072,-1.3072,-1.3072,-1.3072,-1.2878,-1.2885,-1.2897,-1.291,-1.2924,-1.2935,-1.2942,-1.2954,-1.2966,-1.298,-1.299,-1.3003,-1.3019,-1.3034,-1.3045,-1.305,-1.3053,-1.3047,-1.3054,-1.3074,-1.3078,-1.3081,-1.308,-1.3047,-1.3047,-1.3031,-1.303,-1.303]},{"header":{"parameterUnit":"m.s-1","parameterCategory":1,"la1":30.2991,"la2":30.254,"lo1":-89.0895,"lo2":-89.0444,"dy":0.0017,"dx":0.0017,"nx":28,"ny":28,"refTime":"2023-09-02T09:00:00:Z","depth":0,"parameterNumber":3,"parameterNumberName":"V-component_of_WINDS"},"data":[0,0,0,0,0,0,0,0,0,0,0,0,0,0,0,0,0,0,0,0,0,0,0,0,0,0,0,0,0,0,0,0,0,0,0,0,0,0,0,0,0,0,0,0,0,0,0,0,0,0,0,0,0,0,0,0,0,0,0.8183,0.8183,0,0.8132,0.8131,0.8131,0.8042,0.804,0.8038,0.8037,0.7988,0.7988,0.7988,0,0,0,0,0,0,0,0,0,0,0,0,0,0.8207,0.8207,0.8183,0.8183,0.8182,0.8132,0.8131,0.8131,0.8042,0.804,0.8038,0.8036,0.7988,0.7988,0.7988,0,0,0,0,0,0,0,0,0,0,0,0,0,0.818,0.8207,0.8183,0.8131,0.8126,0.8132,0.8131,0.813,0.8042,0.804,0.8037,0.8035,0.7987,0.7988,0.7988,0.8042,0,0,0.7989,0.799,0,0,0,0,0,0,0,0,0.8182,0.818,0.814,0.8135,0.8129,0.809,0.8122,0.8101,0.8043,0.8074,0.8037,0.8034,0.8024,0.8021,0.8017,0.8039,0.8037,0.799,0.799,0.799,0.799,0,0,0,0,0,0,0,0.8184,0.8181,0.8163,0.8139,0.8133,0.8112,0.8105,0.8117,0.8064,0.8071,0.8065,0.806,0.8021,0.8017,0.8016,0.8036,0.799,0.799,0.799,0.799,0.8099,0.8101,0,0,0,0,0,0,0.8193,0.8183,0.8165,0.8161,0.815,0.8113,0.8106,0.8106,0.8064,0.8055,0.8062,0.8056,0.8018,0.8015,0.8014,0.8072,0.799,0.799,0.7991,0.8096,0.8099,0.8102,0,0,0,0,0,0,0.8194,0.8192,0.8167,0.8171,0.8166,0.8116,0.8116,0.8106,0.8102,0.8057,0.8047,0.8068,0.8016,0.8013,0.8035,0.807,0.7991,0.7991,0.8093,0.8097,0.8101,0.8192,0,0,0,0,0,0,0.8195,0.8193,0.8212,0.8172,0.8166,0.8188,0.8118,0.8107,0.8103,0.8094,0.806,0.8052,0.8014,0.8035,0.8035,0.8069,0.7991,0.809,0.8095,0.81,0.8185,0.8198,0.8209,0,0,0,0,0,0.8196,0.8241,0.8213,0.8212,0.8189,0.819,0.8187,0.8142,0.8106,0.8125,0.8096,0.8053,0.8066,0.8038,0.8038,0.8072,0.8087,0.8093,0.8099,0.818,0.8196,0.8209,0,0,0,0,0,0,0.8288,0.8234,0.8204,0.8236,0.8218,0.8175,0.8198,0.816,0.8153,0.8145,0.809,0.8083,0.8112,0.8094,0.8064,0.8121,0.807,0.8076,0.8131,0.8146,0.8158,0.8161,0.7992,0,0,0,0,0,0.8312,0.8317,0.827,0.8304,0.8296,0.8249,0.8248,0.8214,0.8194,0.8186,0.8158,0.8141,0.8141,0.8143,0.814,0.8182,0.8174,0.8206,0.8218,0.8228,0.8234,0.8254,0.8268,0.8122,0.8122,0.8122,0,0,0.8361,0.8333,0.834,0.8321,0.8303,0.831,0.8243,0.8254,0.8259,0.8188,0.8206,0.8186,0.8163,0.8195,0.8208,0.8181,0.8272,0.8236,0.8244,0.8244,0.8262,0.8276,0.8288,0.8126,0.8125,0.8124,0,0,0.8455,0.8434,0.8459,0.8442,0.8416,0.8384,0.839,0.8353,0.8336,0.8353,0.83,0.8306,0.8307,0.8293,0.8286,0.8374,0.8334,0.8375,0.8438,0.8458,0.847,0.848,0.8511,0.8523,0.8381,0.8382,0.8382,0,0.8521,0.8528,0.8477,0.8491,0.8484,0.842,0.8445,0.8432,0.8406,0.8404,0.8374,0.8374,0.8354,0.8381,0.8403,0.84,0.8405,0.8379,0.8472,0.8482,0.849,0.8519,0.8531,0.8387,0.8386,0.8385,0.8385,0,0.861,0.8616,0.864,0.8615,0.8611,0.8631,0.8584,0.8586,0.8553,0.8525,0.8543,0.8517,0.8508,0.8512,0.848,0.8535,0.8519,0.8482,0.8429,0.851,0.8536,0.8547,0.8394,0.8392,0.8391,0.8389,0,0,0.8761,0.8707,0.8716,0.8704,0.867,0.8674,0.8691,0.8681,0.8684,0.8669,0.8682,0.8684,0.8648,0.8641,0.8607,0.8625,0.8696,0.8585,0.8583,0.8606,0.8755,0.8783,0.8797,0.8669,0.8671,0.8673,0.8756,0,0.8847,0.8871,0.8826,0.8861,0.8866,0.8805,0.8819,0.8801,0.8775,0.8776,0.8747,0.875,0.8703,0.8698,0.8713,0.8684,0.8725,0.8678,0.8681,0.8682,0.8688,0.881,0.884,0.8921,0.8766,0.8768,0.8769,0,0.8951,0.894,0.8975,0.8938,0.8938,0.8952,0.8939,0.8941,0.8918,0.8898,0.8889,0.8848,0.8863,0.8812,0.8832,0.88,0.8799,0.8786,0.8787,0.8786,0.8731,0.8812,0.8945,0.8957,0.8785,0.8784,0.8783,0,0.9057,0.9051,0.9071,0.9062,0.9019,0.9031,0.9014,0.8988,0.8985,0.8974,0.8971,0.8962,0.8958,0.8952,0.8911,0.8878,0.8935,0.8881,0.8919,0.8921,0.8934,0.8934,0.9069,0.8934,0.8934,0.8934,0.8934,0,0.9158,0.9183,0.9117,0.913,0.9155,0.9103,0.913,0.9107,0.9085,0.9092,0.9039,0.9048,0.8992,0.8995,0.8963,0.8983,0.8982,0.8966,0.8957,0.8971,0.8973,0.8969,0.8963,0.8937,0.8936,0.8936,0.8935,0,0.9281,0.9238,0.9256,0.9213,0.9203,0.9224,0.9188,0.9198,0.9169,0.9179,0.9178,0.9132,0.9132,0.909,0.9082,0.9061,0.9095,0.9077,0.9103,0.9097,0.9137,0.9133,0.9274,0.929,0.9146,0.9147,0.9148,0,0.9348,0.9365,0.9324,0.9324,0.9309,0.9311,0.9307,0.9257,0.9255,0.923,0.9243,0.9239,0.9232,0.9236,0.9202,0.9196,0.9176,0.9226,0.9175,0.9188,0.9177,0.9176,0.9177,0.9237,0.9239,0.924,0.9241,0,0.9472,0.9449,0.9445,0.9433,0.9429,0.9418,0.9403,0.9407,0.9352,0.9352,0.9351,0.9346,0.9337,0.9334,0.9321,0.9304,0.9264,0.9257,0.9266,0.928,0.9294,0.9286,0.9132,0.9255,0.9253,0.9252,0.9251,0.9251,0.9568,0.958,0.9553,0.9549,0.9533,0.952,0.9527,0.9498,0.9496,0.9483,0.9454,0.9458,0.9434,0.9413,0.94,0.9402,0.9377,0.939,0.9393,0.9397,0.9404,0.9294,0.94,0.9399,0.9399,0.9399,0.9398,0,0.9689,0.9668,0.9665,0.9645,0.9643,0.9604,0.9586,0.9586,0.959,0.9571,0.9565,0.9564,0.956,0.9526,0.9518,0.9527,0.9508,0.9527,0.9526,0.9522,0.9427,0.942,0.9542,0.9542,0.9542,0.9542,0.9542,0.9542,0.9751,0.9769,0.9744,0.9753,0.9732,0.9734,0.9727,0.9715,0.9699,0.97,0.9696,0.9673,0.9648,0.9638,0.9633,0.9623,0.9623,0.9647,0.9632,0.9543,0.9529,0.9516,0.9509,0.9648,0.9648,0.9727,0.9727,0.9728]}]]